Weather History for PAHN - April, 2014

Change the Weather History Date:

Monday, April 21, 2014

  Actual Average Record
Temperature  
Mean Temperature 45 °F -  
Max Temperature 55 °F 48 °F 74 °F (1978)
Min Temperature 35 °F 34 °F 26 °F (2013)
Degree Days  
Heating Degree Days 20    
Moisture  
Dew Point 30 °F    
Average Humidity 58    
Maximum Humidity 85    
Minimum Humidity 43    
Precipitation  
Precipitation 0.00 in - - ()
Sea Level Pressure  
Sea Level Pressure 29.97 in    
Wind  
Wind Speed 12 mph (WSW)    
Max Wind Speed 17 mph    
Max Gust Speed 24 mph    
Visibility 10 miles    
Events      
Averages and records for this station are not official NWS values.
T = Trace of Precipitation, MM = Missing Value Source: NWS Daily Summary

Daily Weather History Graph

Daily Weather History Graph

Search for Another Location

Airport or City:

Trip Planner

Search our weather history database for the weather conditions in past years. The results will help you decide how hot, cold, wet, or windy it might be!

Date:

Astronomy

Apr. 21, 2014 Rise Set
Actual Time 5:30 AM AKDT 8:32 PM AKDT
Civil Twilight 4:43 AM AKDT 9:20 PM AKDT
Nautical Twilight 3:39 AM AKDT 10:25 PM AKDT
Astronomical Twilight 1:55 AM AKDT 12:17 AM AKDT
Moon 2:28 AM AKDT (4/21) 10:47 AM AKDT (4/21)
Length of Visible Light 16h 36m
Length of Day
15h 02m
Waning Gibbous, 56% of the Moon is Illuminated
Apr 21
Waning Gibbous
Apr 21
Last Quarter
Apr 28
New
May 6
First Quarter
May 14
Full

Hourly Weather History & Observations

Time (AKDT) Temp. Windchill Dew Point Humidity Pressure Visibility Wind Dir Wind Speed Gust Speed Precip Events Conditions
12:54 AM 43.0 °F 36.0 °F 27.0 °F 53% 29.90 in 10.0 mi NW 13.8 mph 23.0 mph N/A   Clear
1:54 AM 41.0 °F 33.1 °F 27.0 °F 57% 29.91 in 10.0 mi WNW 15.0 mph 24.2 mph N/A   Clear
2:54 AM 39.0 °F 30.6 °F 28.0 °F 65% 29.92 in 10.0 mi WNW 15.0 mph - N/A   Partly Cloudy
3:54 AM 37.9 °F 28.5 °F 27.0 °F 65% 29.92 in 10.0 mi WNW 17.3 mph - N/A   Clear
4:54 AM 39.0 °F 30.6 °F 27.0 °F 62% 29.93 in 10.0 mi NW 15.0 mph - N/A   Clear
5:54 AM 37.0 °F 28.1 °F 27.0 °F 67% 29.94 in 10.0 mi WNW 15.0 mph - N/A   Clear
6:54 AM 35.1 °F 24.8 °F 27.0 °F 72% 29.94 in 10.0 mi WNW 17.3 mph - N/A   Clear
7:54 AM 41.0 °F 32.5 °F 26.1 °F 55% 29.94 in 10.0 mi WNW 17.3 mph - N/A   Clear
8:54 AM 43.0 °F 35.7 °F 27.0 °F 53% 29.96 in 10.0 mi WNW 15.0 mph - N/A   Mostly Cloudy
9:54 AM 46.0 °F 44.8 °F 27.0 °F 47% 29.99 in 10.0 mi NNW 3.5 mph - N/A   Overcast
10:54 AM 50.0 °F - 30.0 °F 46% 30.00 in 10.0 mi SE 8.1 mph - N/A   Partly Cloudy
11:54 AM 52.0 °F - 30.0 °F 43% 30.00 in 10.0 mi SE 10.4 mph - N/A   Mostly Cloudy
12:54 PM 53.1 °F - 33.1 °F 47% 30.00 in 10.0 mi ESE 9.2 mph - N/A   Scattered Clouds
1:54 PM 54.0 °F - 35.1 °F 49% 30.01 in 10.0 mi SE 13.8 mph - N/A   Partly Cloudy
2:54 PM 55.0 °F - 33.1 °F 43% 30.00 in 10.0 mi SE 12.7 mph - N/A   Clear
3:54 PM 54.0 °F - 32.0 °F 43% 30.00 in 10.0 mi SE 11.5 mph - N/A   Mostly Cloudy
4:54 PM 52.0 °F - 34.0 °F 50% 29.99 in 10.0 mi ESE 5.8 mph - N/A   Mostly Cloudy
5:54 PM 51.1 °F - 30.9 °F 46% 29.98 in 10.0 mi Variable 4.6 mph - N/A   Clear
6:54 PM 50.0 °F - 35.1 °F 57% 29.98 in 10.0 mi ESE 6.9 mph - N/A   Clear
7:54 PM 46.9 °F - 36.0 °F 66% 29.98 in 10.0 mi SSE 4.6 mph - N/A   Clear
8:54 PM 43.0 °F - 33.1 °F 68% 29.98 in 10.0 mi Calm Calm - N/A   Clear
9:54 PM 41.0 °F - 32.0 °F 70% 29.98 in 10.0 mi Calm Calm - N/A   Partly Cloudy
10:54 PM 39.0 °F - 32.0 °F 76% 29.97 in 10.0 mi Calm Calm - N/A   Mostly Cloudy
11:54 PM 35.1 °F - 30.9 °F 85% 29.96 in 10.0 mi Calm Calm - N/A   Partly Cloudy